This demonstration page uses our WeatherBlox Daily Observations layout. Learn more.

Left ArrowRight Arrow

Hourly Observations for August 21, 2022

Temp ( °F °C ) Dew Point ( °F °C ) Humidity (%) Winds ( mph kmh ) Pressure ( in mb ) Visibility ( mi km ) Precip ( " mm )
12:53 am 00:53 Partly Cloudy with Light Rain 71 21.7 69 20.6 93 93 SE 7 11 29.91 1013 10 16 0.03 0.76
1:53 am 01:53 Clear 71 21.7 69 20.6 93 93 SE 8 13 29.88 1012 10 16 0.01 0.13
2:53 am 02:53 Partly Cloudy 71 21.7 69 20.6 93 93 SE 10 17 29.86 1011 10 16 0.00 0.00
3:53 am 03:53 Partly Cloudy 71 21.7 69 20.6 93 93 S 3 6 29.86 1011 10 16 0.00 0.00
4:53 am 04:53 Clear 71 21.7 69 20.6 93 93 NW 3 6 29.86 1011 8 13 0.00 0.00
5:53 am 05:53 Cloudy 71 21.7 70 21.1 96 96 Calm 29.88 1012 8 13 0.00 0.00
9:40 am 09:40 Partly Cloudy 74 23.3 69 20.6 85 85 N 5 7 29.91 1013 10 16 0.00 0.00
9:53 am 09:53 Sunny 75 23.9 68 20 79 79 N 5 7 29.94 1014 10 16 0.00 0.00
10:53 am 10:53 Sunny 76 24.4 67 19.4 74 74 NW 5 7 29.95 1014 10 16 0.00 0.00
11:53 am 11:53 Sunny 78 25.6 66 18.9 67 67 NW 7 11 29.96 1014 10 16 0.00 0.00
12:53 pm 12:53 Sunny 81 27.2 65 18.3 58 58 VRB 7 11 29.96 1014 10 16 0.00 0.00
1:53 pm 13:53 Partly Cloudy 82 27.8 66 18.9 58 58 W 10 17 29.93 1014 10 16 0.00 0.00
2:53 pm 14:53 Mostly Sunny 84 28.9 66 18.9 55 55 W 10 17 29.91 1013 10 16 0.00 0.00
3:53 pm 15:53 Sunny 85 29.4 65 18.3 51 51 WNW 12 19 29.88 1012 10 16 0.00 0.00
4:53 pm 16:53 Mostly Sunny 85 29.4 65 18.3 51 51 NW 9 15 29.86 1011 10 16 0.00 0.00
5:53 pm 17:53 Sunny 86 30 64 17.8 48 48 WNW 14 22 29.84 1011 10 16 0.00 0.00
6:53 pm 18:53 Sunny 86 30 64 17.8 48 48 WNW 8 13 29.83 1010 10 16 0.00 0.00
7:53 pm 19:53 Sunny 84 28.9 64 17.8 51 51 WNW 10 17 29.84 1011 10 16 0.00 0.00
8:53 pm 20:53 Clear 82 27.8 65 18.3 56 56 WNW 7 11 29.88 1012 10 16 0.00 0.00
9:53 pm 21:53 Clear 81 27.2 66 18.9 61 61 WNW 5 7 29.89 1012 10 16 0.00 0.00
10:53 pm 22:53 Clear 79 26.1 68 20 69 69 NW 6 9 29.89 1012 10 16 0.00 0.00
11:24 pm 23:24 Clear 78 25.6 66 18.9 67 67 N 13 20 29.86 1011 10 16 0.00 0.00
11:53 pm 23:53 Clear 77 25 66 18.9 69 69 NNE 12 19 29.91 1013 10 16 0.00 0.00

Powered by AerisWeather